| time (UTC) | temp F | wind direction | speed knots | gust knots | rain 1hr in | rain 24hr in | rain mn in | humidity % | barometer mb |
| 20260906204506 | 78 | 321 | 0.9 | 3.5 | 0.00 | 0.00 | 0.00 | 54 | 1015.3 |
| 20260906203015 | 77 | 9 | 0.9 | 4.3 | 0.00 | 0.00 | 0.00 | 54 | 1015.4 |
| 20260906201521 | 78 | 18 | 2.6 | 4.3 | 0.00 | 0.00 | 0.00 | 50 | 1015.5 |
| 20260906200004 | 77 | 300 | 1.7 | 5.2 | 0.00 | 0.00 | 0.00 | 51 | 1015.4 |
| 20260906194514 | 77 | 9 | 2.6 | 7.0 | 0.00 | 0.00 | 0.00 | 54 | 1015.4 |
| 20260906193014 | 77 | 302 | 1.7 | 6.1 | 0.00 | 0.00 | 0.00 | 55 | 1015.4 |
| 20260906191520 | 77 | 46 | 2.6 | 5.2 | 0.00 | 0.00 | 0.00 | 54 | 1015.5 |
| 20260906190035 | 76 | 26 | 0.9 | 4.3 | 0.00 | 0.00 | 0.00 | 59 | 1015.8 |
| 20260906184505 | 76 | 191 | 1.7 | 4.3 | 0.00 | 0.00 | 0.00 | 58 | 1015.7 |
| 20260906183014 | 76 | 9 | 2.6 | 7.8 | 0.00 | 0.00 | 0.00 | 62 | 1015.9 |
| 20260906181530 | 75 | 88 | 2.6 | 5.2 | 0.00 | 0.00 | 0.00 | 61 | 1016.0 |
| 20260906180023 | 74 | 69 | 0.9 | 3.5 | 0.00 | 0.00 | 0.00 | 63 | 1016.1 |
| 20260906174527 | 75 | 148 | 0.0 | 4.3 | 0.00 | 0.00 | 0.00 | 59 | 1016.2 |
| 20260906173009 | 75 | 32 | 1.7 | 3.5 | 0.00 | 0.00 | 0.00 | 63 | 1016.3 |
| 20260906171517 | 73 | 9 | 1.7 | 3.5 | 0.00 | 0.00 | 0.00 | 65 | 1016.3 |
| 20260906170021 | 73 | 194 | 0.9 | 5.2 | 0.00 | 0.00 | 0.00 | 64 | 1016.4 |
| 20260906164527 | 73 | 9 | 1.7 | 7.0 | 0.00 | 0.00 | 0.00 | 68 | 1016.4 |
| 20260906163031 | 72 | 15 | 2.6 | 4.3 | 0.00 | 0.00 | 0.00 | 66 | 1016.3 |
| 20260906161510 | 73 | 9 | 1.7 | 8.7 | 0.00 | 0.00 | 0.00 | 70 | 1016.3 |
| 20260906160030 | 72 | 23 | 3.5 | 7.8 | 0.00 | 0.00 | 0.00 | 68 | 1016.4 |
| 20260906154540 | 73 | 336 | 3.5 | 7.0 | 0.00 | 0.00 | 0.00 | 65 | 1016.4 |
| 20260906153038 | 73 | 28 | 3.5 | 5.2 | 0.00 | 0.00 | 0.00 | 73 | 1016.6 |
| 20260906151531 | 71 | 23 | 2.6 | 6.1 | 0.00 | 0.00 | 0.00 | 72 | 1016.4 |
| 20260906150020 | 71 | 9 | 1.7 | 5.2 | 0.00 | 0.00 | 0.00 | 74 | 1016.4 |
| 20260906144523 | 72 | 360 | 2.6 | 7.8 | 0.00 | 0.00 | 0.00 | 74 | 1016.3 |
| 20260906143034 | 71 | 360 | 2.6 | 5.2 | 0.00 | 0.00 | 0.00 | 76 | 1016.3 |
| 20260906141530 | 69 | 344 | 1.7 | 4.3 | 0.00 | 0.00 | 0.00 | 77 | 1016.3 |
| 20260906140042 | 68 | 331 | 1.7 | 4.3 | 0.00 | 0.00 | 0.00 | 81 | 1016.2 |
| 20260906134519 | 67 | 9 | 2.6 | 7.0 | 0.00 | 0.00 | 0.00 | 81 | 1016.1 |
| 20260906133026 | 67 | 12 | 1.7 | 7.0 | 0.00 | 0.00 | 0.00 | 83 | 1015.9 |
| 20260906131531 | 67 | 10 | 2.6 | 4.3 | 0.00 | 0.00 | 0.00 | 84 | 1015.8 |
| 20260906130041 | 66 | 348 | 0.9 | 2.6 | 0.00 | 0.00 | 0.00 | 89 | 1015.7 |
| 20260906124536 | 64 | 9 | 0.9 | 3.5 | 0.00 | 0.00 | 0.00 | 90 | 1015.7 |
| 20260906123032 | 62 | 159 | 0.0 | 1.7 | 0.00 | 0.00 | 0.00 | 96 | 1015.6 |
| 20260906121505 | 62 | 128 | 0.9 | 0.9 | 0.00 | 0.00 | 0.00 | 98 | 1015.3 |
| 20260906120005 | 60 | 128 | 0.0 | 1.7 | 0.00 | 0.00 | 0.00 | 97 | 1015.1 |
| 20260906114504 | 58 | 128 | 0.0 | 0.9 | 0.00 | 0.00 | 0.00 | 97 | 1015.1 |
| 20260906113005 | 57 | 128 | 0.0 | 0.0 | 0.00 | 0.00 | 0.00 | 97 | 1014.9 |
| 20260906111513 | 56 | 128 | 0.0 | 1.7 | 0.00 | 0.00 | 0.00 | 97 | 1014.8 |
| 20260906110012 | 56 | 128 | 0.0 | 0.0 | 0.00 | 0.00 | 0.00 | 96 | 1014.7 |
| 20260906104512 | 56 | 128 | 0.0 | 0.0 | 0.00 | 0.00 | 0.00 | 96 | 1014.7 |
| 20260906103009 | 56 | 128 | 0.0 | 0.0 | 0.00 | 0.00 | 0.00 | 96 | 1014.4 |
| 20260906101510 | 56 | 128 | 0.0 | 0.0 | 0.00 | 0.00 | 0.00 | 96 | 1014.2 |
| 20260906100010 | 56 | 128 | 0.0 | 0.0 | 0.00 | 0.00 | 0.00 | 96 | 1014.2 |
| 20260906094518 | 56 | 128 | 0.0 | 0.0 | 0.00 | 0.00 | 0.00 | 96 | 1014.0 |
| 20260906093011 | 56 | 128 | 0.0 | 0.0 | 0.00 | 0.00 | 0.00 | 96 | 1013.8 |
| 20260906091523 | 57 | 128 | 0.0 | 0.0 | 0.00 | 0.00 | 0.00 | 95 | 1013.6 |
| 20260906090013 | 57 | 128 | 0.0 | 0.0 | 0.00 | 0.00 | 0.00 | 95 | 1013.3 |
| 20260906084520 | 57 | 128 | 0.0 | 0.0 | 0.00 | 0.00 | 0.00 | 95 | 1013.2 |
| 20260906083021 | 57 | 128 | 0.0 | 0.0 | 0.00 | 0.00 | 0.00 | 95 | 1013.2 |
| 20260906081530 | 57 | 128 | 0.0 | 0.0 | 0.00 | 0.00 | 0.00 | 95 | 1013.1 |
| 20260906080013 | 57 | 128 | 0.0 | 0.0 | 0.00 | 0.00 | 0.00 | 95 | 1013.1 |
| 20260906074513 | 58 | 128 | 0.0 | 1.7 | 0.00 | 0.00 | 0.00 | 95 | 1013.1 |
| 20260906073015 | 58 | 128 | 0.0 | 0.0 | 0.00 | 0.00 | 0.00 | 95 | 1012.9 |
| 20260906071518 | 58 | 128 | 0.0 | 0.0 | 0.00 | 0.00 | 0.00 | 95 | 1012.9 |
| 20260906070018 | 58 | 128 | 0.0 | 0.0 | 0.00 | 0.00 | 0.00 | 95 | 1013.0 |
| 20260906064515 | 58 | 128 | 0.0 | 0.0 | 0.00 | 0.00 | 0.00 | 95 | 1013.0 |
| 20260906063021 | 59 | 128 | 0.0 | 0.0 | 0.00 | 0.00 | 0.00 | 94 | 1013.0 |
| 20260906061519 | 59 | 128 | 0.0 | 0.0 | 0.00 | 0.00 | 0.00 | 94 | 1013.1 |
| 20260906060018 | 59 | 128 | 0.0 | 0.0 | 0.00 | 0.00 | 0.00 | 94 | 1013.2 |
| 20260906054518 | 59 | 128 | 0.0 | 0.0 | 0.00 | 0.00 | 0.00 | 94 | 1013.4 |
| 20260906053026 | 59 | 128 | 0.0 | 0.9 | 0.00 | 0.00 | 0.00 | 94 | 1013.4 |
| 20260906051511 | 60 | 128 | 0.0 | 0.0 | 0.00 | 0.00 | 0.00 | 94 | 1013.4 |
| 20260906050044 | 60 | 128 | 0.0 | 0.0 | 0.00 | 0.00 | 0.00 | 94 | 1013.3 |
| 20260906044523 | 60 | 128 | 0.0 | 0.0 | 0.00 | 0.00 | 0.00 | 94 | 1013.5 |
| 20260906043003 | 60 | 128 | 0.0 | 0.0 | 0.00 | 0.00 | 0.00 | 93 | 1013.6 |
| 20260906041509 | 60 | 128 | 0.0 | 0.0 | 0.00 | 0.00 | 0.00 | 93 | 1013.4 |
| 20260906040014 | 61 | 128 | 0.0 | 0.0 | 0.00 | 0.00 | 0.00 | 93 | 1013.3 |
| 20260906034531 | 61 | 128 | 0.0 | 1.7 | 0.00 | 0.00 | 0.00 | 93 | 1013.4 |
| 20260906033028 | 61 | 128 | 0.0 | 0.0 | 0.00 | 0.00 | 0.00 | 93 | 1013.2 |
| 20260906031504 | 62 | 128 | 0.0 | 1.7 | 0.00 | 0.00 | 0.00 | 92 | 1013.2 |
| 20260906030011 | 62 | 128 | 0.0 | 0.0 | 0.00 | 0.00 | 0.00 | 92 | 1013.2 |
| 20260906024515 | 62 | 128 | 0.0 | 0.0 | 0.00 | 0.00 | 0.00 | 92 | 1013.0 |
| 20260906023027 | 62 | 128 | 0.0 | 0.0 | 0.00 | 0.00 | 0.00 | 91 | 1012.9 |
| 20260906021530 | 63 | 128 | 0.0 | 0.0 | 0.00 | 0.00 | 0.00 | 90 | 1013.0 |
| 20260906020008 | 63 | 128 | 0.0 | 0.0 | 0.00 | 0.00 | 0.00 | 89 | 1012.9 |
| 20260906014512 | 64 | 128 | 0.0 | 0.0 | 0.00 | 0.00 | 0.00 | 88 | 1012.9 |
| 20260906013021 | 64 | 128 | 0.0 | 0.0 | 0.00 | 0.00 | 0.00 | 87 | 1012.9 |
| 20260906011526 | 66 | 128 | 0.0 | 1.7 | 0.00 | 0.00 | 0.00 | 85 | 1012.8 |
| 20260906010032 | 66 | 128 | 0.0 | 0.0 | 0.00 | 0.00 | 0.00 | 82 | 1012.6 |
| 20260906004512 | 67 | 128 | 0.0 | 0.0 | 0.00 | 0.00 | 0.00 | 81 | 1012.2 |
| 20260906003018 | 68 | 128 | 0.0 | 0.0 | 0.00 | 0.00 | 0.00 | 79 | 1012.1 |
| 20260906001525 | 68 | 128 | 0.0 | 0.0 | 0.00 | 0.00 | 0.00 | 79 | 1012.0 |
| 20260906000031 | 69 | 128 | 0.0 | 1.7 | 0.00 | 0.00 | 0.00 | 76 | 1011.9 |
| 20260905234533 | 71 | 128 | 0.0 | 1.7 | 0.00 | 0.00 | 0.00 | 74 | 1011.7 |
| 20260905233021 | 73 | 96 | 0.0 | 0.0 | 0.00 | 0.00 | 0.00 | 69 | 1011.4 |
| 20260905231518 | 74 | 96 | 0.0 | 1.7 | 0.00 | 0.00 | 0.00 | 65 | 1011.3 |
| 20260905230026 | 75 | 98 | 0.0 | 1.7 | 0.00 | 0.00 | 0.00 | 64 | 1011.3 |
| 20260905224527 | 75 | 16 | 0.0 | 1.7 | 0.00 | 0.00 | 0.00 | 62 | 1011.3 |
| 20260905223035 | 76 | 36 | 0.9 | 1.7 | 0.00 | 0.00 | 0.00 | 59 | 1011.1 |
| 20260905221514 | 76 | 331 | 1.7 | 3.5 | 0.00 | 0.00 | 0.00 | 59 | 1011.2 |
| 20260905220024 | 77 | 21 | 0.9 | 4.3 | 0.00 | 0.00 | 0.00 | 56 | 1011.1 |
| 20260905214526 | 78 | 350 | 0.9 | 3.5 | 0.00 | 0.00 | 0.00 | 56 | 1011.0 |
| 20260905213005 | 78 | 346 | 2.6 | 7.0 | 0.00 | 0.00 | 0.00 | 54 | 1010.9 |
| 20260905211512 | 79 | 321 | 1.7 | 2.6 | 0.00 | 0.00 | 0.00 | 54 | 1010.8 |
| 20260905210019 | 78 | 28 | 0.9 | 3.5 | 0.00 | 0.00 | 0.00 | 54 | 1010.9 |